DLH27A EDDH-EDDL

Flight info

Callsign DLH27A
Flight time N/A
Altitude 31000
Route IDEKO7G/33 IDEKO N850 ROBEG/N0432F300 DCT DENOL T851 HALME HALME1A
Aircraft A339/H-SADE1E2E3GHIJ3J5M1P2RWXY/LB2D1

Departure

Time 2026-05-05 13:14
Airport Hamburg Helmut Schmidt Airport (EDDH)

Arrival

Time N/A
Airport Düsseldorf Airport (EDDL)
Time Latitude Longitude Altitude Speed Heading
2026-05-05 12:51 53.63106 10.00388 54 ft 0 kts 85°
2026-05-05 13:01 53.63103 10.00334 46 ft 4 kts 85°
2026-05-05 13:02 53.63102 10.00280 46 ft 5 kts 109°
2026-05-05 13:02 53.63111 10.00249 46 ft 0 kts 176°
2026-05-05 13:02 53.63094 10.00258 46 ft 3 kts 160°
2026-05-05 13:02 53.63079 10.00263 48 ft 0 kts 170°
2026-05-05 13:05 53.63075 10.00262 53 ft 2 kts 179°
2026-05-05 13:05 53.63054 10.00246 49 ft 6 kts 199°
2026-05-05 13:06 53.63004 10.00193 49 ft 11 kts 213°
2026-05-05 13:06 53.62945 10.00129 45 ft 0 kts 212°
2026-05-05 13:08 53.62944 10.00129 52 ft 1 kts 212°
2026-05-05 13:08 53.62925 10.00109 51 ft 6 kts 212°
2026-05-05 13:08 53.62873 10.00069 51 ft 9 kts 185°
2026-05-05 13:09 53.62800 10.00105 49 ft 13 kts 153°
2026-05-05 13:09 53.62708 10.00193 49 ft 17 kts 151°
2026-05-05 13:09 53.62598 10.00250 48 ft 11 kts 199°
2026-05-05 13:09 53.62574 10.00204 48 ft 0 kts 238°
2026-05-05 13:11 53.62566 10.00183 48 ft 5 kts 238°
2026-05-05 13:11 53.62543 10.00110 48 ft 9 kts 245°
2026-05-05 13:11 53.62551 10.00014 47 ft 7 kts 309°
2026-05-05 13:12 53.62567 10.00000 49 ft 0 kts 329°
2026-05-05 13:12 53.62569 9.99999 49 ft 0 kts 331°
2026-05-05 13:13 53.62595 9.99975 49 ft 14 kts 332°
2026-05-05 13:13 53.62969 9.99662 47 ft 119 kts 332°
2026-05-05 13:13 53.63992 9.98765 216 ft 197 kts 334°
2026-05-05 13:14 53.65301 9.97584 873 ft 229 kts 334°
2026-05-05 13:14 53.66789 9.96283 1748 ft 251 kts 335°
2026-05-05 13:14 53.68410 9.94929 2583 ft 269 kts 335°
2026-05-05 13:14 53.70045 9.93204 3400 ft 287 kts 319°
2026-05-05 13:15 53.71235 9.90447 4228 ft 304 kts 296°
2026-05-05 13:15 53.71841 9.86826 4406 ft 340 kts 276°
2026-05-05 13:15 53.71559 9.82827 5209 ft 336 kts 253°
2026-05-05 13:15 53.70582 9.79372 5964 ft 320 kts 240°
2026-05-05 13:16 53.69456 9.76220 7262 ft 305 kts 240°
2026-05-05 13:16 53.68508 9.73229 8101 ft 277 kts 244°
2026-05-05 13:16 53.67741 9.70285 8717 ft 273 kts 248°
2026-05-05 13:16 53.67074 9.67287 9174 ft 274 kts 250°
2026-05-05 13:17 53.66456 9.64239 9471 ft 275 kts 251°
2026-05-05 13:17 53.65797 9.61213 9694 ft 276 kts 243°
2026-05-05 13:17 53.64597 9.58749 9838 ft 278 kts 220°
2026-05-05 13:17 53.62856 9.57326 9928 ft 283 kts 195°
2026-05-05 13:18 53.60896 9.56910 9937 ft 285 kts 187°
2026-05-05 13:18 53.58921 9.56617 9933 ft 285 kts 187°
2026-05-05 13:18 53.56948 9.56304 9935 ft 284 kts 188°
2026-05-05 13:18 53.54980 9.55955 9936 ft 285 kts 188°
2026-05-05 13:19 53.52977 9.55570 10012 ft 297 kts 188°
2026-05-05 13:19 53.50837 9.55142 10274 ft 322 kts 188°
2026-05-05 13:19 53.48560 9.54686 10898 ft 333 kts 188°
2026-05-05 13:19 53.46247 9.54228 11697 ft 338 kts 188°
2026-05-05 13:20 53.43897 9.53764 12524 ft 342 kts 188°
2026-05-05 13:20 53.41510 9.53292 13318 ft 348 kts 188°
2026-05-05 13:20 53.39100 9.52817 14080 ft 353 kts 188°
2026-05-05 13:20 53.36640 9.52334 14845 ft 356 kts 189°
2026-05-05 13:21 53.34164 9.51849 15592 ft 360 kts 189°
2026-05-05 13:21 53.31692 9.51365 16318 ft 364 kts 189°
2026-05-05 13:21 53.29161 9.50869 17050 ft 368 kts 189°
2026-05-05 13:21 53.26602 9.50367 17788 ft 372 kts 189°
2026-05-05 13:22 53.24018 9.49860 18474 ft 376 kts 190°
2026-05-05 13:22 53.21413 9.49347 19166 ft 378 kts 190°
2026-05-05 13:22 53.18785 9.48827 19879 ft 380 kts 190°
2026-05-05 13:22 53.16154 9.48308 20565 ft 383 kts 190°
2026-05-05 13:23 53.13521 9.47793 21259 ft 386 kts 190°
2026-05-05 13:23 53.10847 9.47273 21944 ft 389 kts 190°
2026-05-05 13:23 53.08148 9.46750 22660 ft 392 kts 190°
2026-05-05 13:23 53.05426 9.46223 23344 ft 395 kts 190°
2026-05-05 13:24 53.02687 9.45694 23971 ft 398 kts 190°
2026-05-05 13:24 52.99928 9.45162 24618 ft 399 kts 190°
2026-05-05 13:24 52.97161 9.44614 25238 ft 401 kts 191°
2026-05-05 13:24 52.94389 9.44021 25846 ft 403 kts 191°
2026-05-05 13:25 52.91594 9.43410 26457 ft 405 kts 191°
2026-05-05 13:25 52.88793 9.42799 27060 ft 408 kts 191°
2026-05-05 13:25 52.85964 9.42189 27651 ft 410 kts 191°
2026-05-05 13:25 52.83160 9.41587 28214 ft 412 kts 191°
2026-05-05 13:26 52.80299 9.40977 28764 ft 415 kts 191°
2026-05-05 13:26 52.77428 9.40366 29287 ft 417 kts 191°
2026-05-05 13:26 52.74535 9.39752 29827 ft 420 kts 191°
2026-05-05 13:26 52.71623 9.39134 30301 ft 422 kts 191°
2026-05-05 13:27 52.68694 9.38514 30688 ft 426 kts 192°
2026-05-05 13:27 52.65789 9.37900 30843 ft 426 kts 192°
2026-05-05 13:27 52.59805 9.36579 30909 ft 441 kts 193°
2026-05-05 13:28 52.53754 9.34955 30911 ft 440 kts 193°
2026-05-05 13:28 52.47709 9.33328 30909 ft 440 kts 193°
2026-05-05 13:29 52.41653 9.31739 30911 ft 440 kts 193°
2026-05-05 13:29 52.35631 9.30172 30911 ft 440 kts 192°
2026-05-05 13:30 52.29581 9.28591 30907 ft 440 kts 193°
2026-05-05 13:30 52.26652 9.27263 30909 ft 435 kts 204°
2026-05-05 13:30 52.23965 9.25030 30887 ft 430 kts 214°
2026-05-05 13:31 52.21626 9.22058 30427 ft 425 kts 224°
2026-05-05 13:31 52.19706 9.18433 29618 ft 422 kts 234°
2026-05-05 13:31 52.18094 9.14458 28721 ft 419 kts 236°
2026-05-05 13:31 52.16498 9.10523 28127 ft 412 kts 236°
2026-05-05 13:32 52.14893 9.06617 27947 ft 418 kts 236°
2026-05-05 13:32 52.13260 9.02683 27903 ft 419 kts 236°
2026-05-05 13:32 52.11623 8.98766 27896 ft 419 kts 235°
2026-05-05 13:32 52.09980 8.94849 27895 ft 419 kts 235°
2026-05-05 13:33 52.08359 8.90991 27876 ft 419 kts 235°
2026-05-05 13:33 52.06711 8.87074 27882 ft 419 kts 235°
2026-05-05 13:33 52.05060 8.83158 27896 ft 419 kts 235°
2026-05-05 13:33 52.03405 8.79236 27878 ft 420 kts 235°
2026-05-05 13:34 52.01748 8.75316 27869 ft 420 kts 235°
2026-05-05 13:34 52.00128 8.71356 27875 ft 420 kts 238°
2026-05-05 13:34 51.98783 8.67126 27892 ft 422 kts 245°
2026-05-05 13:34 51.97781 8.62648 27872 ft 423 kts 252°
2026-05-05 13:35 51.97116 8.57982 27892 ft 424 kts 257°
2026-05-05 13:35 51.96549 8.53341 27880 ft 425 kts 257°
2026-05-05 13:35 51.95962 8.48644 27880 ft 425 kts 256°
2026-05-05 13:35 51.95363 8.43944 27879 ft 425 kts 256°
2026-05-05 13:36 51.94759 8.39252 27882 ft 426 kts 256°
2026-05-05 13:36 51.94151 8.34556 27882 ft 426 kts 256°
2026-05-05 13:36 51.93540 8.29859 27878 ft 426 kts 256°
2026-05-05 13:36 51.92928 8.25164 27882 ft 426 kts 256°
2026-05-05 13:37 51.92313 8.20465 27844 ft 424 kts 256°
2026-05-05 13:37 51.91703 8.15810 27300 ft 422 kts 256°
2026-05-05 13:37 51.91090 8.11160 26505 ft 419 kts 256°
2026-05-05 13:37 51.90481 8.06549 25676 ft 417 kts 256°
2026-05-05 13:38 51.89876 8.01986 25157 ft 413 kts 256°
2026-05-05 13:38 51.89265 7.97406 24960 ft 418 kts 256°
2026-05-05 13:38 51.88658 7.92856 24892 ft 418 kts 256°
2026-05-05 13:38 51.88042 7.88257 24892 ft 418 kts 256°
2026-05-05 13:39 51.87425 7.83658 24892 ft 419 kts 256°
2026-05-05 13:39 51.86803 7.79042 24890 ft 419 kts 256°
2026-05-05 13:39 51.86177 7.74447 24892 ft 419 kts 255°
2026-05-05 13:39 51.85338 7.69933 24893 ft 418 kts 248°
2026-05-05 13:40 51.84183 7.65612 24890 ft 416 kts 242°
2026-05-05 13:40 51.82907 7.61405 24887 ft 417 kts 242°
2026-05-05 13:40 51.81644 7.57184 24880 ft 416 kts 243°
2026-05-05 13:40 51.80394 7.52986 24693 ft 413 kts 243°
2026-05-05 13:41 51.79163 7.48843 24471 ft 402 kts 243°
2026-05-05 13:41 51.77977 7.44852 24224 ft 386 kts 243°
2026-05-05 13:41 51.76830 7.41002 23732 ft 376 kts 242°
2026-05-05 13:41 51.75713 7.37267 22977 ft 372 kts 242°
2026-05-05 13:42 51.74593 7.33533 22171 ft 368 kts 242°
2026-05-05 13:42 51.73750 7.29649 21376 ft 368 kts 257°
2026-05-05 13:42 51.73693 7.25342 20619 ft 403 kts 275°
2026-05-05 13:42 51.74408 7.20953 19875 ft 407 kts 290°
2026-05-05 13:43 51.75819 7.17038 19153 ft 401 kts 307°
2026-05-05 13:43 51.77819 7.13964 18455 ft 398 kts 323°
2026-05-05 13:43 51.80291 7.11934 17687 ft 400 kts 340°
2026-05-05 13:43 51.83007 7.11136 16913 ft 395 kts 358°
2026-05-05 13:44 51.85688 7.11644 16146 ft 384 kts 16°
2026-05-05 13:44 51.88045 7.13385 15407 ft 372 kts 34°
2026-05-05 13:44 51.89886 7.16213 14664 ft 361 kts 54°
2026-05-05 13:44 51.90984 7.19782 13962 ft 351 kts 74°
2026-05-05 13:45 51.91227 7.23646 13202 ft 342 kts 95°
2026-05-05 13:45 51.90614 7.27297 12425 ft 334 kts 116°
2026-05-05 13:45 51.89247 7.30261 11660 ft 326 kts 138°
2026-05-05 13:45 51.87334 7.32129 10912 ft 318 kts 161°
2026-05-05 13:46 51.85184 7.32643 10182 ft 311 kts 183°
2026-05-05 13:46 51.83131 7.31763 9434 ft 305 kts 206°
2026-05-05 13:46 51.81426 7.29800 8656 ft 297 kts 217°
2026-05-05 13:46 51.79747 7.27916 7884 ft 290 kts 213°
2026-05-05 13:47 51.78147 7.25991 7147 ft 284 kts 217°
2026-05-05 13:47 51.76591 7.24073 6413 ft 278 kts 217°
2026-05-05 13:47 51.75028 7.22278 5655 ft 272 kts 213°
2026-05-05 13:47 51.73463 7.20689 4923 ft 268 kts 211°
2026-05-05 13:48 51.71883 7.19151 4245 ft 262 kts 211°
2026-05-05 13:48 51.70392 7.17434 3965 ft 267 kts 225°
2026-05-05 13:48 51.69445 7.14901 3928 ft 266 kts 252°
2026-05-05 13:48 51.69301 7.11953 3937 ft 267 kts 279°
2026-05-05 13:49 51.69995 7.09200 3935 ft 266 kts 306°
2026-05-05 13:49 51.71373 7.07270 3934 ft 265 kts 333°
2026-05-05 13:49 51.73156 7.06564 3955 ft 264 kts
2026-05-05 13:49 51.74921 7.07255 3955 ft 263 kts 28°
2026-05-05 13:50 51.76388 7.09324 3937 ft 302 kts 54°
2026-05-05 13:50 51.77248 7.12433 3948 ft 313 kts 78°
2026-05-05 13:50 51.77250 7.15934 3942 ft 311 kts 102°
2026-05-05 13:50 51.76411 7.18943 3934 ft 278 kts 127°
2026-05-05 13:51 51.74979 7.20812 3951 ft 267 kts 155°
2026-05-05 13:51 51.73179 7.21386 3965 ft 265 kts 182°
2026-05-05 13:51 51.71432 7.20545 3967 ft 265 kts 210°
2026-05-05 13:51 51.69985 7.18686 3964 ft 266 kts 223°
2026-05-05 13:52 51.68637 7.16646 3966 ft 266 kts 223°
2026-05-05 13:52 51.67223 7.14724 3965 ft 265 kts 218°
2026-05-05 13:52 51.65730 7.12975 3959 ft 266 kts 214°
2026-05-05 13:52 51.64202 7.11363 3959 ft 266 kts 212°
2026-05-05 13:53 51.62634 7.09790 3962 ft 266 kts 212°
2026-05-05 13:53 51.61054 7.08232 3853 ft 266 kts 211°
2026-05-05 13:53 51.59477 7.06678 3709 ft 266 kts 211°
2026-05-05 13:53 51.57899 7.05115 3596 ft 266 kts 211°
2026-05-05 13:54 51.56356 7.03579 3504 ft 255 kts 211°
2026-05-05 13:54 51.55376 7.02602 3439 ft 244 kts 211°
2026-05-05 13:54 51.53978 7.01210 3283 ft 228 kts 211°
2026-05-05 13:54 51.52673 6.99912 3147 ft 215 kts 211°
2026-05-05 13:55 51.51416 6.98666 2995 ft 208 kts 211°
2026-05-05 13:55 51.50173 6.97430 2962 ft 215 kts 211°
2026-05-05 13:55 51.48899 6.96159 2963 ft 214 kts 211°
2026-05-05 13:55 51.47631 6.94896 2965 ft 214 kts 211°
2026-05-05 13:56 51.46378 6.93652 2966 ft 215 kts 211°
2026-05-05 13:56 51.45112 6.92395 2968 ft 214 kts 211°
2026-05-05 13:56 51.43844 6.91135 2967 ft 215 kts 211°
2026-05-05 13:56 51.42577 6.89873 2972 ft 213 kts 211°
2026-05-05 13:57 51.41320 6.88621 2968 ft 212 kts 211°
2026-05-05 13:57 51.40058 6.87367 2978 ft 216 kts 211°